TimeEST,TemperatureF,Dew PointF,Humidity,Sea Level PressureIn,VisibilityMPH,Wind Direction,Wind SpeedMPH,Gust SpeedMPH,PrecipitationIn,Events,Conditions,WindDirDegrees,DateUTC
12:51 AM,28.9,21.9,75,30.25,10.0,West,5.8,-,N/A,,Overcast,280,2011-12-18 05:51:00
1:07 AM,28.4,21.2,74,30.16,10.0,West,5.8,-,N/A,,Overcast,270,2011-12-18 06:07:00
1:51 AM,28.9,21.9,75,30.26,10.0,WNW,8.1,-,N/A,,Overcast,290,2011-12-18 06:51:00
2:06 AM,28.4,21.2,74,30.17,10.0,WNW,5.8,-,N/A,,Overcast,290,2011-12-18 07:06:00
2:34 AM,28.4,21.2,74,30.17,7.0,West,8.1,-,0.00,Snow,Light Snow,280,2011-12-18 07:34:00
2:51 AM,28.9,23.0,78,30.27,5.0,West,10.4,-,0.00,Snow,Light Snow,280,2011-12-18 07:51:00
3:51 AM,28.9,24.1,82,30.26,4.0,West,8.1,-,0.00,Snow,Light Snow,270,2011-12-18 08:51:00
4:51 AM,28.9,24.1,82,30.27,5.0,West,6.9,-,0.00,Snow,Light Snow,260,2011-12-18 09:51:00
5:51 AM,28.9,24.1,82,30.29,8.0,West,8.1,-,0.00,Snow,Light Snow,280,2011-12-18 10:51:00
6:51 AM,28.9,24.1,82,30.32,10.0,West,9.2,-,0.00,,Overcast,280,2011-12-18 11:51:00
7:39 AM,28.4,24.8,86,30.23,10.0,WNW,10.4,-,N/A,,Overcast,300,2011-12-18 12:39:00
7:47 AM,30.2,24.8,80,30.23,10.0,West,9.2,-,N/A,,Overcast,280,2011-12-18 12:47:00
7:51 AM,30.0,24.1,79,30.34,10.0,West,9.2,-,N/A,,Overcast,280,2011-12-18 12:51:00
8:51 AM,30.0,24.1,79,30.36,10.0,West,10.4,-,0.00,,Overcast,280,2011-12-18 13:51:00
9:51 AM,30.9,23.0,72,30.37,10.0,WNW,10.4,19.6,N/A,,Overcast,300,2011-12-18 14:51:00
10:51 AM,34.0,24.1,67,30.36,10.0,WNW,9.2,-,N/A,,Mostly Cloudy,300,2011-12-18 15:51:00
11:24 AM,35.6,24.8,65,30.25,10.0,West,13.8,-,N/A,,Scattered Clouds,260,2011-12-18 16:24:00
11:31 AM,35.6,24.8,65,30.24,10.0,WNW,10.4,18.4,N/A,,Mostly Cloudy,290,2011-12-18 16:31:00
11:43 AM,35.6,24.8,65,30.24,10.0,WNW,8.1,-,N/A,,Scattered Clouds,300,2011-12-18 16:43:00
11:51 AM,35.1,24.1,64,30.31,10.0,NW,10.4,16.1,N/A,,Scattered Clouds,310,2011-12-18 16:51:00
12:51 PM,37.0,23.0,57,30.30,10.0,WNW,9.2,-,N/A,,Clear,290,2011-12-18 17:51:00
1:51 PM,37.9,23.0,55,30.28,10.0,WNW,10.4,-,N/A,,Clear,290,2011-12-18 18:51:00
2:51 PM,39.0,21.0,49,30.29,10.0,West,11.5,-,N/A,,Clear,280,2011-12-18 19:51:00
3:51 PM,39.0,19.0,45,30.30,10.0,NW,8.1,-,N/A,,Clear,320,2011-12-18 20:51:00
4:51 PM,37.0,21.0,52,30.33,10.0,WNW,6.9,-,N/A,,Clear,290,2011-12-18 21:51:00
5:51 PM,35.1,21.0,57,30.34,10.0,WNW,3.5,-,N/A,,Clear,300,2011-12-18 22:51:00
6:51 PM,28.9,21.0,72,30.35,10.0,SW,3.5,-,N/A,,Clear,220,2011-12-18 23:51:00
7:51 PM,28.9,21.0,72,30.33,10.0,South,5.8,-,N/A,,Clear,180,2011-12-19 00:51:00
8:51 PM,32.0,21.9,66,30.32,10.0,South,4.6,-,N/A,,Clear,180,2011-12-19 01:51:00
9:51 PM,32.0,21.9,66,30.32,10.0,South,4.6,-,N/A,,Clear,190,2011-12-19 02:51:00
10:51 PM,32.0,21.9,66,30.31,10.0,South,5.8,-,N/A,,Clear,190,2011-12-19 03:51:00
11:51 PM,32.0,21.9,66,30.31,10.0,SSW,3.5,-,N/A,,Clear,210,2011-12-19 04:51:00